Back to catalog

COSMOS 2251 DEB

AliveLEO
NORAD 33942·DEBRIS·🇷🇺 Russia

Launched Jun 16, 1993 from Plesetsk Cosmodrome

Loading…

Next Passes (next 24 hours)

TLE

FreshSource: Space-Track

Epoch: Sep 14, 2026, 10:04 UTC

1 33942U 93036EX  26257.41980469  .00000302  00000-0  10773-3 0  9991
2 33942  74.0354 126.9709 0020142 149.4203  25.1015 14.38290080920978

Track COSMOS 2251 DEB in real time with AllMySat

Download on the App Store